Find Starlink 32751

NORAD ID: 62753 Int'l Des: 2025-014 Owner: SPXS Country: US Constellation: starlink operational
LEOCIRCULAR

当前视图

正在加载3D地球...

About Starlink 32751

Starlink 32751 (NORAD 62753) is a starlink constellation satellite (v2 mini) launched Jan 21, 2025 by SPXS of US. It operates in LEO, CIRCULAR orbit with a mass of 730.00 kg.

即将过境

Passes for default location (London). Set your location on the main map for personalized predictions.

高度历史

Loading altitude history...

两行轨道根数

1 62753U 25014U 26264.06381963 .00013834 00000-0 51128-3 0 9990
2 62753 42.9997 131.3331 0001443 269.5216 90.5470 15.27581898 93138
Epoch: Sep 21, 2026 • Age: 11 hours

当前状态

高度 484.2 km
远地点 / 近地点 N/A
速度 7.62 km/s
星下点 -9.47°S, 68.72°W
发射日期 Jan 21, 2025
运行时间 1.6 years
类型 internet

技术详情

分类 Payload
质量 730.00 kg
干质量 700.00 kg
长度 0.30 m
跨度 29.00 m
形状 ? Box + pan
制造商 SPXS
平台类型 Starlink V2M
阶段状态 In Orbit
所有者/国家 SPXS/US

Most Searched